Regional Weather Roundup
Issued by NWS

Home | Current Version | Previous Version | Graphics & Text | Print | Product List | Glossary On
Versions: 1 2 3 4 5 6 7 8 9 10 11 12 13 14 15 16 17 18 19 20 21 22 23 24 25 26 27 28 29 30 31 32 33 34 35 36 37 38 39 40 41 42 43 44 45 46 47 48 49 50
000
ASUS45 KCYS 250310
RWRWY

WYOMING REGIONAL WEATHER ROUNDUP
NATIONAL WEATHER SERVICE CHEYENNE WY
900 PM MDT FRI MAR 24 2017

NOTE:  "FAIR" INDICATES FEW OR NO CLOUDS BELOW 12,000 FEET
WITH NO SIGNIFICANT WEATHER AND/OR OBSTRUCTIONS TO VISIBILITY.

WYZ001-250400-
YELLOWSTONE NATIONAL PARK

CITY           SKY/WX    TMP DP  RH WIND       PRES   REMARKS
LK YELLOWSTONE   N/A     35  18  49 MISG      30.06S
W YELLOWSTONE  NOT AVBL

$$
WYZ002>013-054>058-071-098>099-250400-
NORTHERN WYOMING

CITY           SKY/WX    TMP DP  RH WIND       PRES   REMARKS
JACKSON        CLOUDY    39  30  70 SW9       30.06S WCI  33
CODY           FAIR      49  20  31 SW10      29.92R
GREYBULL       FAIR      50  33  52 E9        29.90S
WORLAND        FAIR      48  36  63 SE12      29.92S
SHERIDAN       FAIR      44  32  62 CALM      29.86S
BUFFALO        FAIR      50  23  34 S14       29.91S
GILLETTE       FAIR      45  30  55 S12       29.96S
HULETT         FAIR      45  28  53 SE10      29.99F
NEWCASTLE      FAIR      45  28  53 SE14      30.06S

$$
WYZ014>020-022>026-101>103-250400-
CENTRAL WYOMING

CITY           SKY/WX    TMP DP  RH WIND       PRES   REMARKS
BIG PINEY      FAIR      35  28  75 SE3       30.11F
PINEDALE       FAIR      32  28  86 CALM      30.13S
DUBOIS         FAIR      36  23  60 N13G23    30.03S WCI  27
LANDER         FAIR      51  11  20 SW17G24   29.97S
RIVERTON       FAIR      47  33  58 S6        29.99S
CASPER         FAIR      40  26  57 SW3       30.03S
DOUGLAS        FAIR      43  27  53 SE10      30.06S

$$
WYZ021-027>030-104>119-250400-
SOUTHERN WYOMING

CITY           SKY/WX    TMP DP  RH WIND       PRES   REMARKS
EVANSTON       MOCLDY    41  30  65 W7        30.10S
KEMMERER         N/A     34  25  69 N9        30.12S WCI  26
FORT BRIDGER   FAIR      42  34  71 N5        30.14S
ROCK SPRINGS   FAIR      44  31  60 S5        30.11R
DIXON            N/A     35  27  71 NE7       30.16S WCI  29
RAWLINS        FAIR      40  18  41 W3        30.12R
SARATOGA       FAIR      36  21  55 S15       30.14S WCI  26
LARAMIE        FAIR      36  19  50 S7        30.13R WCI  30
CHEYENNE       FAIR      39  25  57 S7        30.13S WCI  34
TORRINGTON     FAIR      45  26  47 SE9       30.09R
PINE BLUFFS    FAIR      37  27  65 S5        30.14R WCI  34

$$



USA.gov is the U.S. government's official web portal to all federal, state and local government web resources and services.